When you browse on this site, cookies collect data to enhance your experience and personalize the content and advertising you see.
Visit our Privacy Policy to learn more. By continuing to use the site, you agree to this use of cookies and data.

Meteo pe oră la Akureyri

Astăzi, 24 Septembrie, Joi

Timp Temperatura Precipitaţii Vânt Presiune Umiditate
00:00 +5°C° 0 mm 1 m/s 713 mmHg 84%
01:00 +5°C° 0 mm 1 m/s 713 mmHg 86%
02:00 +4°C° 0 mm 1 m/s 714 mmHg 86%
03:00 +4°C° 0 mm 1 m/s 714 mmHg 86%
04:00 +3°C° 0 mm 1 m/s 714 mmHg 87%
05:00 +2°C° 0.1 mm 0 m/s 714 mmHg 85%
06:00 +3°C° 0.1 mm 0 m/s 715 mmHg 83%
07:00 +4°C° 0 mm 1 m/s 715 mmHg 81%
08:00 +4°C° 0.4 mm 1 m/s 715 mmHg 82%
09:00 +4°C° 0.4 mm 1 m/s 715 mmHg 84%
10:00 +4°C° 0.4 mm 1 m/s 715 mmHg 85%
11:00 +3°C° 0.6 mm 2 m/s 715 mmHg 89%
12:00 +2°C° 0.6 mm 2 m/s 714 mmHg 92%
13:00 +1°C° 0 mm 3 m/s 714 mmHg 95%
14:00 +1°C° 0.7 mm 3 m/s 714 mmHg 95%
15:00 +1°C° 0.7 mm 4 m/s 713 mmHg 95%
16:00 +1°C° 0.7 mm 4 m/s 713 mmHg 95%
17:00 +3°C° 1.4 mm 4 m/s 712 mmHg 96%
18:00 +4°C° 1.4 mm 3 m/s 711 mmHg 97%
19:00 +4°C° 1.4 mm 3 m/s 711 mmHg 98%
20:00 +5°C° 2.3 mm 3 m/s 710 mmHg 98%
21:00 +7°C° 2.3 mm 3 m/s 710 mmHg 98%
22:00 +8°C° 2.3 mm 3 m/s 710 mmHg 98%
23:00 +9°C° 0.1 mm 3 m/s 709 mmHg 97%

Mâine, 25 Septembrie, Vineri

Timp Temperatura Precipitaţii Vânt Presiune Umiditate
00:00 +8°C° 0.1 mm 4 m/s 709 mmHg 96%
01:00 +8°C° 0.1 mm 4 m/s 709 mmHg 96%
02:00 +7°C° 0 mm 4 m/s 709 mmHg 95%
03:00 +6°C° 0 mm 4 m/s 709 mmHg 95%
04:00 +5°C° 0 mm 4 m/s 709 mmHg 94%
05:00 +5°C° 0 mm 4 m/s 709 mmHg 93%
06:00 +5°C° 0 mm 4 m/s 709 mmHg 92%
07:00 +3°C° 0 mm 5 m/s 709 mmHg 90%
08:00 +5°C° 0 mm 5 m/s 709 mmHg 86%
09:00 +6°C° 0 mm 5 m/s 710 mmHg 82%
10:00 +5°C° 0 mm 6 m/s 710 mmHg 78%
11:00 +5°C° 0 mm 6 m/s 711 mmHg 76%
12:00 +5°C° 0 mm 6 m/s 712 mmHg 75%
13:00 +7°C° 0 mm 6 m/s 712 mmHg 73%
14:00 +7°C° 0 mm 5 m/s 713 mmHg 76%
15:00 +7°C° 0 mm 4 m/s 714 mmHg 78%
16:00 +8°C° 0 mm 3 m/s 715 mmHg 81%
17:00 +7°C° 0 mm 3 m/s 716 mmHg 84%
18:00 +5°C° 0 mm 2 m/s 717 mmHg 88%
19:00 +4°C° 0 mm 2 m/s 718 mmHg 91%
20:00 +4°C° 0 mm 2 m/s 719 mmHg 91%
21:00 +3°C° 0 mm 2 m/s 719 mmHg 91%
22:00 +3°C° 0 mm 2 m/s 720 mmHg 90%
23:00 +3°C° 0 mm 2 m/s 721 mmHg 89%

Poimâine, 26 Septembrie, Sâmbătă

Timp Temperatura Precipitaţii Vânt Presiune Umiditate
00:00 +3°C° 0 mm 2 m/s 721 mmHg 87%
01:00 +2°C° 0 mm 2 m/s 721 mmHg 86%
02:00 +2°C° 0 mm 2 m/s 722 mmHg 84%
03:00 +2°C° 0 mm 2 m/s 722 mmHg 83%
04:00 +2°C° 0 mm 2 m/s 722 mmHg 81%
05:00 +2°C° 0 mm 3 m/s 722 mmHg 80%
06:00 +2°C° 0 mm 3 m/s 722 mmHg 79%
07:00 +2°C° 0 mm 3 m/s 723 mmHg 78%
08:00 +3°C° 0 mm 3 m/s 723 mmHg 77%
09:00 +3°C° 0 mm 3 m/s 723 mmHg 75%
10:00 +4°C° 0 mm 3 m/s 723 mmHg 74%
11:00 +4°C° 0.3 mm 3 m/s 724 mmHg 77%
12:00 +4°C° 0.3 mm 3 m/s 724 mmHg 80%
13:00 +4°C° 0.3 mm 3 m/s 724 mmHg 84%
14:00 +4°C° 0.7 mm 3 m/s 724 mmHg 86%
15:00 +3°C° 0.7 mm 3 m/s 724 mmHg 88%
16:00 +3°C° 0.7 mm 3 m/s 725 mmHg 90%
17:00 +3°C° 0.1 mm 3 m/s 725 mmHg 90%
18:00 +3°C° 0.1 mm 3 m/s 726 mmHg 91%
19:00 +3°C° 0.1 mm 3 m/s 726 mmHg 92%
20:00 +2°C° 0 mm 3 m/s 727 mmHg 91%
21:00 +2°C° 0 mm 3 m/s 727 mmHg 90%
22:00 +2°C° 0 mm 3 m/s 728 mmHg 89%
23:00 +2°C° 0 mm 3 m/s 728 mmHg 89%

27 Septembrie, Duminică

Timp Temperatura Precipitaţii Vânt Presiune Umiditate
00:00 +2°C° 0 mm 3 m/s 728 mmHg 89%
01:00 +2°C° 0 mm 3 m/s 729 mmHg 88%
02:00 +2°C° 0.1 mm 3 m/s 729 mmHg 88%
03:00 +2°C° 0.1 mm 3 m/s 729 mmHg 89%
04:00 +1°C° 0.1 mm 3 m/s 729 mmHg 89%
05:00 +1°C° 0 mm 3 m/s 730 mmHg 89%
06:00 +1°C° 0 mm 3 m/s 730 mmHg 89%
07:00 +1°C° 0 mm 3 m/s 730 mmHg 89%
08:00 +2°C° 0.1 mm 2 m/s 730 mmHg 88%
09:00 +2°C° 0.1 mm 2 m/s 730 mmHg 88%
10:00 +3°C° 0.1 mm 2 m/s 730 mmHg 88%
11:00 +3°C° 0.1 mm 2 m/s 730 mmHg 88%
12:00 +3°C° 0.1 mm 2 m/s 730 mmHg 89%
13:00 +3°C° 0.1 mm 2 m/s 730 mmHg 89%
14:00 +4°C° 0.1 mm 1 m/s 730 mmHg 90%
15:00 +4°C° 0.1 mm 1 m/s 729 mmHg 91%
16:00 +4°C° 0.1 mm 1 m/s 729 mmHg 91%
17:00 +4°C° 0 mm 1 m/s 729 mmHg 92%
18:00 +4°C° 0 mm 1 m/s 729 mmHg 93%
19:00 +4°C° 0 mm 1 m/s 729 mmHg 93%
20:00 +3°C° 0 mm 0 m/s 728 mmHg 94%
21:00 +3°C° 0 mm 0 m/s 728 mmHg 94%
22:00 +3°C° 0 mm 0 m/s 728 mmHg 94%
23:00 +4°C° 0 mm 0 m/s 728 mmHg 95%

28 Septembrie, Luni

Timp Temperatura Precipitaţii Vânt Presiune Umiditate
00:00 +4°C° 0 mm 0 m/s 727 mmHg 95%
01:00 +4°C° 0 mm 0 m/s 727 mmHg 95%
02:00 +4°C° 0 mm 0 m/s 727 mmHg 95%
03:00 +4°C° 0 mm 0 m/s 726 mmHg 96%
04:00 +4°C° 0 mm 0 m/s 726 mmHg 96%
05:00 +5°C° 0 mm 0 m/s 726 mmHg 96%
06:00 +5°C° 0 mm 0 m/s 726 mmHg 96%
07:00 +5°C° 0 mm 0 m/s 725 mmHg 96%
08:00 +6°C° 0 mm 0 m/s 725 mmHg 95%
09:00 +7°C° 0 mm 0 m/s 725 mmHg 95%
10:00 +9°C° 0 mm 1 m/s 725 mmHg 94%
11:00 +9°C° 0 mm 1 m/s 725 mmHg 93%
12:00 +10°C° 0 mm 1 m/s 725 mmHg 93%
13:00 +10°C° 0 mm 1 m/s 725 mmHg 92%
14:00 +10°C° 0 mm 1 m/s 725 mmHg 93%
15:00 +10°C° 0 mm 1 m/s 724 mmHg 94%
16:00 +10°C° 0 mm 1 m/s 724 mmHg 95%
17:00 +10°C° 0 mm 1 m/s 724 mmHg 96%
18:00 +10°C° 0 mm 1 m/s 724 mmHg 97%
19:00 +10°C° 0 mm 1 m/s 724 mmHg 98%
20:00 +9°C° 0 mm 1 m/s 724 mmHg 98%
21:00 +9°C° 0 mm 1 m/s 724 mmHg 98%
22:00 +9°C° 0 mm 1 m/s 724 mmHg 98%
23:00 +9°C° 0 mm 1 m/s 724 mmHg 98%

29 Septembrie, Marţi

Timp Temperatura Precipitaţii Vânt Presiune Umiditate
00:00 +9°C° 0 mm 1 m/s 724 mmHg 98%
01:00 +9°C° 0 mm 1 m/s 724 mmHg 98%
02:00 +9°C° 0 mm 1 m/s 723 mmHg 98%
03:00 +9°C° 0 mm 1 m/s 723 mmHg 98%
04:00 +8°C° 0 mm 1 m/s 723 mmHg 98%
05:00 +9°C° 0 mm 1 m/s 723 mmHg 98%
06:00 +9°C° 0 mm 1 m/s 723 mmHg 97%
07:00 +9°C° 0 mm 1 m/s 723 mmHg 97%
08:00 +8°C° 0 mm 2 m/s 723 mmHg 96%
09:00 +8°C° 0 mm 2 m/s 723 mmHg 95%
10:00 +9°C° 0 mm 2 m/s 723 mmHg 94%
11:00 +9°C° 0 mm 2 m/s 723 mmHg 93%
12:00 +10°C° 0 mm 2 m/s 722 mmHg 92%
13:00 +10°C° 0 mm 2 m/s 722 mmHg 91%
14:00 +10°C° 0 mm 2 m/s 722 mmHg 93%
15:00 +9°C° 0 mm 2 m/s 722 mmHg 94%
16:00 +9°C° 0 mm 2 m/s 722 mmHg 95%
17:00 +9°C° 0.1 mm 2 m/s 722 mmHg 96%
18:00 +9°C° 0.1 mm 2 m/s 722 mmHg 97%
19:00 +8°C° 0.1 mm 2 m/s 722 mmHg 97%
20:00 +8°C° 0.1 mm 2 m/s 722 mmHg 97%
21:00 +8°C° 0.1 mm 2 m/s 723 mmHg 98%
22:00 +8°C° 0.1 mm 2 m/s 723 mmHg 98%
23:00 +8°C° 0.1 mm 2 m/s 723 mmHg 98%
Arată mai mult